Home   Weather   Merida   Past weeks
Flag for Mexico

Past Weather in Merida, Yucatán, Mexico — Yesterday and Last 2 Weeks

Now
84 °F

Partly sunny.


Feels Like: 94 °F
Forecast: 93 / 73 °F
Wind: 7 mph from East

Location: Aerop. Internacional Merida - Yuc

Current Time: Jul 21, 2019 at 10:37:53 am

Latest Report: Jul 21, 2019 at 9:47 am


Visibility: 7 mi

Pressure: 29.98 "Hg

Humidity: 79%

Dew Point: 77 °F

Location of MeridaLocation

Past Weather in Merida — Graph

°F

Merida Temperature Yesterday

Maximum temperature yesterday: 97 °F (at 3:45 pm)
Minimum temperature yesterday: 73 °F (at 6:29 pm)
Average temperature yesterday: 81 °F

High & Low Weather Summary for the Past Weeks

 TemperatureHumidityPressure
High97 °F (Jul 9, 3:46 pm)95% (Jul 10, 3:42 pm)30.14 "Hg (Jul 10, 3:42 pm)
Low72 °F (Jul 21, 4:44 am)39% (Jul 7, 2:45 pm)29.82 "Hg (Jul 12, 4:52 pm)
Average83 °F75%29.97 "Hg
* Reported Jul 6 7:48 am — Jul 21 7:44 am, Merida. Weather by CustomWeather, © 2019

Note: Actual official high and low records may vary slightly from our data, if they occured in-between our weather recording intervals... More about our weather records

Advertising

Merida Weather History for the Previous 24 Hours

Scroll right to see more
 ConditionsComfort  
Time TempWeatherWind HumidityBarometerVisibility
7:44 am
Sun, Jul 21
77 °FPartly sunny.No wind89%29.98 "Hg7 mi
6:45 am73 °FPartly sunny.No wind94%29.96 "Hg7 mi
5:47 am73 °FPassing clouds.No wind94%29.95 "Hg7 mi
4:44 am72 °FPassing clouds.No wind94%29.94 "Hg7 mi
3:46 am73 °FPassing clouds.5 mph94%29.98 "Hg7 mi
2:45 am73 °FPassing clouds.5 mph94%29.97 "Hg7 mi
1:45 am75 °FPassing clouds.5 mph94%29.97 "Hg7 mi
12:45 am73 °FPassing clouds.3 mph94%30.00 "Hg7 mi
11:44 pm
Sat, Jul 20
73 °FPassing clouds.5 mph94%29.99 "Hg7 mi
10:45 pm73 °FPassing clouds.7 mph94%29.98 "Hg7 mi
9:44 pm73 °FThunderstorms. Passing clouds.5 mph94%30.02 "Hg7 mi
8:48 pm73 °FThunderstorms. Passing clouds.12 mph94%30.00 "Hg7 mi
7:50 pm75 °FThunderstorms. Passing clouds.9 mph89%29.97 "Hg7 mi
6:43 pm73 °FThunderstorms. Mostly cloudy.7 mph89%29.96 "Hg5 mi
6:29 pm73 °FThunderstorms. Mostly cloudy.9 mph94%29.94 "Hg5 mi
6:03 pm77 °FThunderstorms. Partly sunny.14 mph79%29.95 "Hg3 mi
5:45 pm84 °FThunderstorms. Partly sunny.32 mph62%29.93 "Hg7 mi
4:45 pm95 °FScattered clouds.12 mph50%29.87 "Hg7 mi
3:45 pm97 °FBroken clouds.7 mph44%29.91 "Hg7 mi
2:45 pm95 °FScattered clouds.8 mph50%29.92 "Hg7 mi
1:45 pm93 °FPartly sunny.7 mph49%29.95 "Hg7 mi
12:46 pm91 °FPartly sunny.7 mph52%29.99 "Hg7 mi
11:45 am90 °FPartly sunny.12 mph59%30.00 "Hg7 mi
10:46 am88 °FScattered clouds.14 mph66%30.01 "Hg7 mi
Weather by CustomWeather, © 2019

See weather overview